When you browse on this site, cookies collect data to enhance your experience and personalize the content and advertising you see.
Visit our Privacy Policy to learn more. By continuing to use the site, you agree to this use of cookies and data.
  • In Spain
  • List of Countries
  • For 7 days
  • Water Temperature
  • Weather Map
  • Weather Widgets
  • user-avatar
    Login

    Hourly Weather Marsa Alam

    Today, 21 October, Monday

    Time Temperature Precipitation Wind Pressure Humidity
    00:00 +25°C° 0 mm 4 mps 715 mmHg 34%
    01:00 +25°C° 0 mm 4 mps 714 mmHg 38%
    02:00 +23°C° 0 mm 4 mps 714 mmHg 42%
    03:00 +23°C° 0 mm 4 mps 714 mmHg 42%
    04:00 +23°C° 0 mm 4 mps 714 mmHg 41%
    05:00 +23°C° 0 mm 4 mps 714 mmHg 40%
    06:00 +26°C° 0 mm 5 mps 715 mmHg 34%
    07:00 +28°C° 0 mm 6 mps 715 mmHg 28%
    08:00 +30°C° 0 mm 6 mps 715 mmHg 22%
    09:00 +32°C° 0 mm 7 mps 716 mmHg 20%
    10:00 +34°C° 0 mm 7 mps 716 mmHg 18%
    11:00 +35°C° 0 mm 7 mps 716 mmHg 16%
    12:00 +35°C° 0 mm 7 mps 715 mmHg 17%
    13:00 +35°C° 0 mm 7 mps 715 mmHg 17%
    14:00 +35°C° 0 mm 7 mps 714 mmHg 18%
    15:00 +34°C° 0 mm 6 mps 714 mmHg 21%
    16:00 +32°C° 0 mm 5 mps 713 mmHg 23%
    17:00 +29°C° 0 mm 3 mps 713 mmHg 26%
    18:00 +28°C° 0 mm 3 mps 713 mmHg 28%
    19:00 +27°C° 0 mm 2 mps 713 mmHg 30%
    20:00 +25°C° 0 mm 1 mps 713 mmHg 32%
    21:00 +25°C° 0 mm 1 mps 713 mmHg 31%
    22:00 +25°C° 0 mm 1 mps 713 mmHg 30%
    23:00 +25°C° 0 mm 1 mps 713 mmHg 29%

    Tomorrow, 22 October, Tuesday

    Time Temperature Precipitation Wind Pressure Humidity
    00:00 +25°C° 0 mm 1 mps 712 mmHg 30%
    01:00 +24°C° 0 mm 1 mps 712 mmHg 31%
    02:00 +24°C° 0 mm 1 mps 711 mmHg 31%
    03:00 +24°C° 0 mm 1 mps 712 mmHg 33%
    04:00 +23°C° 0 mm 2 mps 712 mmHg 34%
    05:00 +23°C° 0 mm 2 mps 712 mmHg 35%
    06:00 +25°C° 0 mm 2 mps 712 mmHg 32%
    07:00 +28°C° 0 mm 2 mps 713 mmHg 28%
    08:00 +30°C° 0 mm 2 mps 713 mmHg 25%
    09:00 +33°C° 0 mm 3 mps 714 mmHg 22%
    10:00 +34°C° 0 mm 3 mps 714 mmHg 20%
    11:00 +36°C° 0 mm 4 mps 714 mmHg 18%
    12:00 +36°C° 0 mm 4 mps 713 mmHg 18%
    13:00 +36°C° 0 mm 5 mps 713 mmHg 18%
    14:00 +36°C° 0 mm 5 mps 712 mmHg 18%
    15:00 +34°C° 0 mm 4 mps 712 mmHg 22%
    16:00 +32°C° 0 mm 4 mps 712 mmHg 27%
    17:00 +29°C° 0 mm 3 mps 712 mmHg 32%
    18:00 +28°C° 0 mm 2 mps 712 mmHg 34%
    19:00 +26°C° 0 mm 2 mps 712 mmHg 37%
    20:00 +25°C° 0 mm 1 mps 712 mmHg 40%
    21:00 +24°C° 0 mm 1 mps 712 mmHg 39%
    22:00 +24°C° 0 mm 1 mps 712 mmHg 39%
    23:00 +24°C° 0 mm 1 mps 712 mmHg 38%

    Day after tomorrow, 23 October, Wednesday

    Time Temperature Precipitation Wind Pressure Humidity
    00:00 +23°C° 0 mm 1 mps 712 mmHg 39%
    01:00 +23°C° 0 mm 1 mps 711 mmHg 40%
    02:00 +23°C° 0 mm 1 mps 711 mmHg 41%
    03:00 +22°C° 0 mm 1 mps 711 mmHg 42%
    04:00 +20°C° 0 mm 0 mps 711 mmHg 43%
    05:00 +19°C° 0 mm 0 mps 711 mmHg 45%
    06:00 +24°C° 0 mm 1 mps 712 mmHg 38%
    07:00 +27°C° 0 mm 1 mps 713 mmHg 31%
    08:00 +30°C° 0 mm 1 mps 714 mmHg 24%
    09:00 +31°C° 0 mm 2 mps 714 mmHg 23%
    10:00 +33°C° 0 mm 3 mps 714 mmHg 22%
    11:00 +35°C° 0 mm 4 mps 714 mmHg 21%
    12:00 +34°C° 0 mm 4 mps 713 mmHg 25%
    13:00 +34°C° 0 mm 5 mps 713 mmHg 28%
    14:00 +34°C° 0 mm 5 mps 712 mmHg 32%
    15:00 +32°C° 0 mm 5 mps 712 mmHg 39%
    16:00 +29°C° 0 mm 4 mps 712 mmHg 46%
    17:00 +28°C° 0 mm 4 mps 712 mmHg 53%
    18:00 +26°C° 0 mm 3 mps 712 mmHg 60%
    19:00 +25°C° 0 mm 2 mps 712 mmHg 67%
    20:00 +24°C° 0 mm 1 mps 713 mmHg 75%
    21:00 +23°C° 0 mm 1 mps 713 mmHg 74%
    22:00 +23°C° 0 mm 1 mps 712 mmHg 74%
    23:00 +22°C° 0 mm 1 mps 712 mmHg 73%

    24 October, Thursday

    Time Temperature Precipitation Wind Pressure Humidity
    00:00 +22°C° 0 mm 1 mps 712 mmHg 73%
    01:00 +22°C° 0 mm 1 mps 712 mmHg 73%
    02:00 +21°C° 0 mm 1 mps 712 mmHg 73%
    03:00 +21°C° 0 mm 1 mps 712 mmHg 74%
    04:00 +21°C° 0 mm 1 mps 712 mmHg 75%
    05:00 +21°C° 0 mm 1 mps 712 mmHg 76%
    06:00 +21°C° 0 mm 2 mps 713 mmHg 67%
    07:00 +24°C° 0 mm 2 mps 714 mmHg 57%
    08:00 +26°C° 0 mm 3 mps 714 mmHg 47%
    09:00 +28°C° 0 mm 3 mps 714 mmHg 43%
    10:00 +29°C° 0 mm 3 mps 714 mmHg 39%
    11:00 +31°C° 0 mm 3 mps 714 mmHg 35%
    12:00 +31°C° 0 mm 3 mps 714 mmHg 36%
    13:00 +32°C° 0 mm 4 mps 713 mmHg 38%
    14:00 +30°C° 0 mm 5 mps 713 mmHg 39%
    15:00 +29°C° 0 mm 4 mps 713 mmHg 44%
    16:00 +28°C° 0 mm 4 mps 713 mmHg 49%
    17:00 +26°C° 0 mm 3 mps 713 mmHg 54%
    18:00 +25°C° 0 mm 2 mps 713 mmHg 61%
    19:00 +24°C° 0 mm 1 mps 713 mmHg 68%
    20:00 +22°C° 0 mm 1 mps 714 mmHg 75%
    21:00 +22°C° 0 mm 1 mps 713 mmHg 69%
    22:00 +22°C° 0 mm 1 mps 713 mmHg 64%
    23:00 +22°C° 0 mm 1 mps 713 mmHg 58%

    25 October, Friday

    Time Temperature Precipitation Wind Pressure Humidity
    00:00 +22°C° 0 mm 1 mps 713 mmHg 54%
    01:00 +21°C° 0 mm 1 mps 713 mmHg 51%
    02:00 +21°C° 0 mm 1 mps 713 mmHg 48%
    03:00 +20°C° 0 mm 1 mps 713 mmHg 50%
    04:00 +19°C° 0 mm 1 mps 713 mmHg 51%
    05:00 +19°C° 0 mm 1 mps 713 mmHg 52%
    06:00 +21°C° 0 mm 1 mps 714 mmHg 47%
    07:00 +23°C° 0 mm 2 mps 714 mmHg 42%
    08:00 +26°C° 0 mm 2 mps 715 mmHg 37%
    09:00 +27°C° 0 mm 3 mps 715 mmHg 33%
    10:00 +28°C° 0 mm 3 mps 715 mmHg 29%
    11:00 +30°C° 0 mm 3 mps 715 mmHg 25%
    12:00 +30°C° 0 mm 3 mps 715 mmHg 26%
    13:00 +30°C° 0 mm 4 mps 714 mmHg 26%
    14:00 +30°C° 0 mm 5 mps 714 mmHg 26%
    15:00 +29°C° 0 mm 4 mps 714 mmHg 34%
    16:00 +27°C° 0 mm 4 mps 713 mmHg 41%
    17:00 +25°C° 0 mm 4 mps 713 mmHg 48%
    18:00 +24°C° 0 mm 3 mps 714 mmHg 55%
    19:00 +21°C° 0 mm 3 mps 714 mmHg 62%
    20:00 +20°C° 0 mm 2 mps 714 mmHg 69%
    21:00 +19°C° 0 mm 2 mps 714 mmHg 65%
    22:00 +20°C° 0 mm 1 mps 714 mmHg 60%
    23:00 +20°C° 0 mm 1 mps 714 mmHg 55%

    26 October, Saturday

    Time Temperature Precipitation Wind Pressure Humidity
    00:00 +20°C° 0 mm 1 mps 714 mmHg 54%
    01:00 +18°C° 0 mm 2 mps 713 mmHg 53%
    02:00 +18°C° 0 mm 2 mps 713 mmHg 52%
    03:00 +18°C° 0 mm 2 mps 713 mmHg 55%
    04:00 +18°C° 0 mm 2 mps 713 mmHg 59%
    05:00 +17°C° 0 mm 2 mps 713 mmHg 63%
    06:00 +19°C° 0 mm 2 mps 714 mmHg 58%
    07:00 +22°C° 0 mm 3 mps 715 mmHg 53%
    08:00 +25°C° 0 mm 4 mps 715 mmHg 48%
    09:00 +26°C° 0 mm 4 mps 715 mmHg 41%
    10:00 +28°C° 0 mm 4 mps 716 mmHg 35%
    11:00 +30°C° 0 mm 4 mps 716 mmHg 28%
    12:00 +30°C° 0 mm 5 mps 715 mmHg 30%
    13:00 +30°C° 0 mm 5 mps 714 mmHg 31%
    14:00 +30°C° 0 mm 5 mps 714 mmHg 32%
    15:00 +28°C° 0 mm 5 mps 714 mmHg 40%
    16:00 +26°C° 0 mm 5 mps 713 mmHg 48%
    17:00 +23°C° 0 mm 5 mps 713 mmHg 56%
    18:00 +22°C° 0 mm 4 mps 713 mmHg 64%
    19:00 +21°C° 0 mm 3 mps 713 mmHg 71%
    20:00 +19°C° 0 mm 2 mps 714 mmHg 78%
    21:00 +19°C° 0 mm 2 mps 714 mmHg 73%
    22:00 +19°C° 0 mm 2 mps 713 mmHg 68%
    23:00 +20°C° 0 mm 1 mps 713 mmHg 62%

    27 October, Sunday

    Time Temperature Precipitation Wind Pressure Humidity
    00:00 +19°C° 0 mm 2 mps 713 mmHg 59%
    01:00 +18°C° 0 mm 2 mps 713 mmHg 57%
    02:00 +18°C° 0 mm 2 mps 713 mmHg 54%
    03:00 +18°C° 0 mm 2 mps 713 mmHg 57%
    04:00 +18°C° 0 mm 2 mps 713 mmHg 61%
    05:00 +17°C° 0 mm 2 mps 713 mmHg 64%
    06:00 +20°C° 0 mm 2 mps 713 mmHg 56%
    07:00 +22°C° 0 mm 3 mps 714 mmHg 49%
    08:00 +25°C° 0 mm 3 mps 715 mmHg 42%
    09:00 +27°C° 0 mm 3 mps 715 mmHg 36%
    10:00 +29°C° 0 mm 4 mps 715 mmHg 31%
    11:00 +30°C° 0 mm 4 mps 715 mmHg 26%
    12:00 +32°C° 0 mm 4 mps 714 mmHg 29%
    13:00 +32°C° 0 mm 5 mps 714 mmHg 31%
    14:00 +32°C° 0 mm 5 mps 713 mmHg 34%
    15:00 +29°C° 0 mm 5 mps 713 mmHg 42%
    16:00 +27°C° 0 mm 4 mps 713 mmHg 51%
    17:00 +25°C° 0 mm 4 mps 713 mmHg 59%
    18:00 +24°C° 0 mm 3 mps 713 mmHg 63%
    19:00 +23°C° 0 mm 2 mps 713 mmHg 67%
    20:00 +21°C° 0 mm 1 mps 713 mmHg 70%
    21:00 +21°C° 0 mm 1 mps 713 mmHg 62%
    22:00 +21°C° 0 mm 1 mps 713 mmHg 54%
    23:00 +21°C° 0 mm 1 mps 714 mmHg 45%
    Show more